Reflectivity
16 15 11 5 11 15 14 13 26 25 28 31 26 21 13 18 12 21 12 18 14 9
17 4 -17 -6 -6 -2 8 -3 2 19 13 30 31 17 -17 3 0 4 7 13 -0 -5
-15 -20 -20 -20 -20 -19 -11 -9 -8 9 -11 14 -13 20 -5 5 -7 -10 -13 -6 -5 -9
-20 -20 -20 -20 -20 -19 -15 -20 -18 -20 3 -20 -20 -20 -20 -20 -20 -19 -17 -13 -20 -20
-20 -20 -20 -20 -20 -20 -20 -20 -20 -20 -19 -19 -20 -20 -20 13 -19 -19 -4 -14 -18 -20
-20 -20 -20 -20 -20 -20 -19 -17 -16 -20 -20 -20 -20 -20 -20 -20 -20 -20 -14 -20 -20 -20
-20 -20 -20 -20 -20 -20 -20 -20 -19 -20 -20 -20 -20 -20 -20 -20 -20 -20 -20 -20 -20 -20
-20 -20 -20 -20 -20 -20 -20 -20 -20 -20 -20 -20 -20 -20 -20 -20 -20 -20 -20 -20 -20 -20
-20 -20 -20 -20 -20 -20 -20 -20 -20 -20 -20 -20 -20 -20 -20 -20 -20 -20 -20 -20 -20 -20
-20 -20 -20 -20 -20 -20 -20 -20 -20 -20 -20 -20 -20 -20 -20 -20 -20 -20 -20 -20 -20 -20
-20 -20 -20 -20 -20 -20 -20 -20 -20 -20 -20 -20 -20 -20 -20 -20 -20 -20 -20 -20 -20 -20
-20 -20 -20 -20 -20 -20 -20 -20 -20 -20 -20 -20 -20 -20 -20 -20 -20 -20 -20 -20 -20 -20
-20 -20 -20 -20 -20 -20 -20 -20 -20 -20 -20 -20 -20 -20 -20 -20 -20 -20 -20 -20 -20 -20
-20 -20 -20 -20 -20 -20 -20 -20 -20 -20 -20 -20 -20 -20 -20 -20 -20 -20 -20 -20 -20 -20
Wind_Speed
7 7 10 12 10 10 9 11 11 11 10 13 14 9 7 6 7 7 5 6 4 4
1 5 7 8 10 7 9 7 10 11 11 10 9 8 8 7 6 6 4 6 6 5
3 1 3 4 6 7 7 9 11 12 12 9 8 8 9 6 6 7 6 5 6 6
3 3 3 2 3 4 5 7 9 9 9 10 10 10 9 8 8 7 7 7 7 7
4 3 2 3 3 3 4 5 8 10 10 10 10 9 10 10 9 10 9 8 7 7
8 6 4 2 1 1 2 4 6 8 10 11 11 11 10 9 9 8 8 7 7 7
9 8 7 4 2 1 3 4 6 6 7 8 9 9 9 9 8 8 7 6 5 6
9 8 7 5 4 2 3 4 5 7 7 7 7 6 10 9 9 7 7 6 6 6
10 8 7 6 5 4 4 5 5 6 6 8 5 9 10 9 8 8 8 7 6 5
9 9 7 7 7 8 8 7 7 7 7 9 8 14 13 10 6 7 7 7 7 7
9 9 8 8 10 10 9 10 10 10 10 9 7 14 15 14 7 6 5 6 6 8
10 10 9 9 10 10 10 10 10 9 11 10 9 14 14 13 7 5 5 5 8 8
13 11 11 9 8 9 9 9 8 9 9 11 10 15 15 13 6 6 5 6 7 11
11 12 12 11 8 7 9 7 8 7 6 9 10 11 15 15 8 6 6 6 6 6
Wind_Direction
190 190 203 208 213 213 205 210 206 197 194 194 197 196 181 174 172 173 194 190 193 205
149 186 194 202 210 215 210 201 200 198 202 198 195 174 174 172 160 144 153 186 188 207
5 288 212 201 214 220 211 200 198 197 199 189 175 174 163 146 143 153 168 175 193 203
1 350 327 266 225 218 194 186 193 189 178 174 171 163 157 158 156 173 173 184 197 199
7 348 356 325 314 281 216 192 179 174 171 169 166 162 161 161 168 174 186 184 192 203
351 349 349 348 328 247 238 199 179 178 173 167 163 164 165 167 169 175 185 184 188 198
349 340 332 332 337 181 178 173 170 173 162 165 162 162 159 162 167 170 176 172 184 194
335 323 315 306 296 260 201 181 174 164 162 155 161 165 166 168 168 171 173 169 184 193
332 318 289 278 267 257 232 205 187 186 179 176 182 175 177 168 172 181 182 180 194 192
327 321 291 252 239 233 221 203 209 203 196 196 190 180 177 178 173 184 191 176 183 188
320 313 305 262 230 222 217 207 201 199 201 198 196 187 188 182 178 180 181 189 183 197
323 310 303 279 250 224 206 206 208 205 197 199 194 195 189 179 171 169 197 196 202 207
321 311 302 294 269 238 220 208 201 196 197 197 197 190 191 179 166 178 201 200 205 208
312 316 309 299 282 246 234 219 205 202 200 207 204 194 196 186 185 186 199 209 207 207